Location: Newark
(39.0622°N, 106.5590°E)
Time: 14:35:18
(UTC+00:00)

Transit 2A Rocket - All Passes

Search period start: 23 January 2020 00:00
Search period end: 02 February 2020 00:00
Orbit: 593 x 910 km, 66.7° (Epoch: 22 January)

Date Brightness Start Highest point End Pass type
(mag) Time Alt. Az. Time Alt. Az. Time Alt. Az.
23 Jan - 05:55:54 10° NNE 05:57:50 12° NE 05:59:49 10° ENE daylight
23 Jan - 07:36:07 10° NNW 07:41:02 81° ENE 07:46:26 10° SSE daylight
23 Jan - 09:21:17 10° W 09:23:04 12° WSW 09:24:55 10° SW daylight
23 Jan - 22:10:21 10° SSW 22:14:41 78° ESE 22:19:00 10° NNE visible
23 Jan - 23:56:10 10° WNW 23:57:47 12° NW 23:59:24 10° NNW daylight
24 Jan - 06:53:45 10° NNW 06:58:28 46° ENE 07:03:35 10° SE daylight
24 Jan - 08:36:57 10° WNW 08:40:47 22° WSW 08:44:50 10° SSW daylight
24 Jan - 21:28:14 10° S 21:32:15 38° ESE 21:36:15 10° NE visible
24 Jan - 23:11:42 10° W 23:14:54 20° NW 23:18:07 10° N visible
25 Jan - 06:11:37 10° N 06:15:47 27° NE 06:20:15 10° ESE daylight
25 Jan - 07:53:46 10° NW 07:58:24 39° WSW 08:03:24 10° S daylight
25 Jan - 20:46:47 10° SSE 20:49:55 20° ESE 20:53:01 10° ENE visible
25 Jan - 22:28:12 10° WSW 22:32:10 35° NW 22:36:09 10° NNE visible
26 Jan - 05:29:48 10° N 05:32:59 17° NE 05:36:19 10° E daylight
26 Jan - 07:10:59 10° NNW 07:15:56 70° WSW 07:21:21 10° SSE daylight
26 Jan - 21:45:15 10° SW 21:49:33 67° WNW 21:53:51 10° NNE visible
27 Jan - 04:49:19 10° NE 04:50:03 10° NE 04:50:46 10° NE daylight
27 Jan - 06:28:28 10° NNW 06:33:24 67° ENE 06:38:47 10° SE daylight
27 Jan - 08:12:42 10° WNW 08:15:32 15° WSW 08:18:30 10° SW daylight
27 Jan - 21:02:47 10° SSW 21:07:02 61° ESE 21:11:18 10° NE visible
27 Jan - 22:47:39 10° W 22:49:59 14° NW 22:52:21 10° NNW visible
28 Jan - 05:46:11 10° NNW 05:50:47 38° NE 05:55:47 10° SE daylight
28 Jan - 07:28:59 10° NW 07:33:13 27° WSW 07:37:44 10° SSW daylight
28 Jan - 20:20:52 10° S 20:24:39 30° ESE 20:28:25 10° NE visible
28 Jan - 22:03:39 10° WSW 22:07:09 24° NW 22:10:43 10° N visible
29 Jan - 05:04:08 10° N 05:08:05 23° NE 05:12:16 10° ESE daylight
29 Jan - 06:45:59 10° NW 06:50:48 48° WSW 06:56:03 10° S daylight
29 Jan - 19:39:47 10° SE 19:42:21 16° ESE 19:44:54 10° ENE night (unlit)
29 Jan - 21:20:21 10° SW 21:24:27 43° WNW 21:28:37 10° NNE visible
30 Jan - 04:22:31 10° NNE 04:25:14 14° NE 04:28:03 10° E daylight
30 Jan - 06:03:18 10° NNW 06:08:19 85° WSW 06:13:48 10° SSE daylight
30 Jan - 20:37:34 10° SSW 20:41:53 85° WNW 20:46:14 10° NNE visible
31 Jan - 05:20:52 10° NNW 05:25:45 55° ENE 05:31:06 10° SE daylight
31 Jan - 07:04:29 10° WNW 07:08:00 19° WSW 07:11:42 10° SSW daylight
31 Jan - 19:55:17 10° S 19:59:25 47° ESE 20:03:34 10° NE night (unlit)
31 Jan - 21:39:22 10° W 21:42:13 17° NW 21:45:06 10° N visible
01 Feb - 04:38:39 10° N 04:43:07 32° NE 04:47:55 10° ESE daylight
01 Feb - 06:21:06 10° NW 06:25:38 33° WSW 06:30:31 10° S daylight
01 Feb - 19:13:36 10° SSE 19:17:04 24° ESE 19:20:32 10° NE night (unlit)
01 Feb - 20:55:40 10° WSW 20:59:26 29° NW 21:03:15 10° N visible
